TIME,DELAY(SENSOR),PRES,T(CTD),SAL,OXYGEN,RAWTEMP,T(OPTODE),TCPHASE,FLUOR,BETA(BETA700),BETA(BETA412),BETA(BETA440),CDOM,C(CSC),ED(ED411.90),ED(ED443.80),ED(ED489.40),ED(ED554.70),LU(LU412.20),LU(LU443.80),LU(LU489.40),LU(LU555.00),COMP,TILTX,TILTX(TILTY),CHECK
1352561214,5802,497.3800048828125000,17.4465007781982420,36.4529991149902340,228.2807006835937500,188.0157012939453000,17.4462604522705080,32.0835304260253900,50,101,62,64,50,1701,2147492278,2147765074,2147554322,2147793645,2147313517,2147476214,2147714121,2148243629,2486,7,12,5030
1352561329,5803,486.2099914550781000,17.5228996276855470,36.4677009582519500,229.7234954833984400,185.5242004394531200,17.5220699310302730,31.9776191711425780,49,101,63,66,51,1701,2147487021,2147765659,2147554313,2147793289,2147314980,2147479405,2147712000,2148244672,2402,7,13,28864
1352561446,5801,474.7999877929687500,17.6072006225585940,36.4832000732421900,230.6943969726562500,182.6865997314453000,17.6084308624267580,31.8907203674316400,50,100,63,65,50,1701,2147487643,2147767506,2147555126,2147791067,2147314816,2147480000,2147710628,2148249499,2919,7,13,39253
1352561561,5803,463.5499877929687500,17.6749000549316400,36.4967994689941400,231.7678985595703000,180.6278991699218800,17.6710796356201170,31.8101692199707030,49,102,63,64,51,1703,2147486080,2147767168,2147556553,2147791515,2147316644,2147480694,2147708150,2148247497,3015,7,13,40823
1352561676,5804,452.5000000000000000,17.7353000640869140,36.5079002380371100,232.9676055908203000,178.6016998291015600,17.7327594757080080,31.7237205505371100,49,100,62,66,50,1704,2147489938,2147766436,2147558491,2147790555,2147315163,2147481444,2147710418,2148241243,3398,7,13,35942
1352561793,5805,441.5100097656250000,17.8076000213623050,36.5204010009765600,233.5823974609375000,176.1750946044922000,17.8066196441650400,31.6608200073242200,50,101,62,65,51,1704,2147486820,2147763858,2147557028,2147790875,2147310994,2147479808,2147708900,2148241170,493,7,12,1921
1352561920,5800,429.9400024414062500,17.8750991821289060,36.5327987670898440,234.2532958984375000,173.9360961914062500,17.8747806549072270,31.5979099273681640,49,101,62,65,51,1705,2147488658,2147765686,2147555803,2147791195,2147312109,2147477394,2147706395,2148243638,737,7,13,44986
1352562037,5804,419.5799865722656000,17.9228992462158200,36.5413017272949200,235.1230010986328000,172.3417968750000000,17.9233207702636720,31.5345191955566400,50,101,62,65,51,1706,2147489910,2147765302,2147555401,2147792868,2147313234,2147484873,2147709284,2148242276,904,7,13,55487
1352562164,5805,408.7600097656250000,17.9874000549316400,36.5499992370605500,234.7180938720703000,170.3448944091797000,17.9841308593750000,31.5273208618164060,49,102,63,66,51,1705,2147492470,2147765531,2147552859,2147795492,2147314669,2147482651,2147709101,2148245650,1164,7,13,41661
1352562303,5805,397.4599914550781000,18.0524997711181640,36.5583000183105500,233.9967041015625000,168.2476043701172000,18.0479907989501950,31.5337791442871100,50,101,62,67,51,1708,2147489883,2147763501,2147552548,2147791698,2147316672,2147485549,2147708544,2148242240,1225,7,12,36789
1352562444,5803,386.2399902343750000,18.1107006072998050,36.5662994384765600,233.9649963378906200,166.2960052490234400,18.1074295043945300,31.5089893341064450,50,102,64,66,50,1709,2147491492,2147766601,2147557494,2147793920,2147305874,2147483620,2147712137,2148242258,2126,7,12,35421
1352562583,5803,375.3599853515625000,18.1630992889404300,36.5716018676757800,233.4853057861328000,164.5608978271484400,18.1602802276611330,31.5088291168212900,49,101,62,66,51,1709,2147488914,2147766454,2147555145,2147792146,2147309266,2147485330,2147709586,2148241133,3009,7,13,2955
1352562731,5801,361.9599914550781000,18.2310009002685550,36.5788002014160160,233.0500946044922000,162.2781982421875000,18.2298107147216800,31.4990806579589840,50,102,63,66,51,1709,2147491913,2147762870,2147556672,2147791305,2147313856,2147486217,2147709705,2148239899,3586,7,12,22913
1352562834,5806,350.9200134277344000,18.3006000518798830,36.5858993530273440,232.1502990722656200,160.0180053710937500,18.2986698150634770,31.5127201080322270,49,100,64,66,51,1709,2147491968,2147761755,2147554816,2147791286,2147315830,2147484836,2147709769,2148238765,518,7,12,48539
1352562937,5801,339.6000061035156000,18.3848991394042970,36.5928001403808600,230.7471008300781200,157.0594940185547000,18.3888206481933600,31.5414905548095700,50,101,63,67,51,1709,2147492187,2147763584,2147561014,2147792064,2147316288,2147479286,2147708068,2148241737,738,7,12,28092
1352563055,5805,327.9400024414062500,18.4986000061035160,36.6025009155273440,229.1342926025390600,153.4642028808593800,18.4983901977539060,31.5726299285888670,50,101,64,66,51,1709,2147492196,2147765376,2147553965,2147790180,2147306532,2147484489,2147709833,2148240640,762,7,13,40559
1352563182,5803,317.0000000000000000,18.5217990875244140,36.5840988159179700,230.1725006103515600,152.8094024658203000,18.5183391571044920,31.5127105712890620,49,102,63,65,50,1709,2147491867,2147763181,2147552502,2147791670,2147304658,2147482560,2147707520,2148242002,929,7,12,17863
1352563311,5804,306.2399902343750000,18.6362991333007800,36.5987014770507800,229.4389038085937500,149.0881958007812500,18.6317901611328120,31.4989204406738280,50,100,62,66,51,1711,2147489700,2147764928,2147557074,2147789915,2147305874,2147485412,2147712566,2148238884,900,7,12,16002
1352563450,5803,295.1700134277344000,18.7362995147705080,36.6110992431640600,227.2277069091797000,145.7639007568359400,18.7331504821777340,31.5634994506835940,49,101,62,65,50,1711,2147490294,2147765869,2147560274,2147789257,2147310326,2147487250,2147713819,2148238308,925,7,12,20646
1352563589,5803,284.5000000000000000,18.8323001861572270,36.6133995056152340,226.8000030517578000,142.5590972900390600,18.8309001922607420,31.5419998168945300,50,100,62,66,50,1713,2147495954,2147762267,2147568795,2147790838,2147309120,2147487177,2147710555,2148239323,739,7,12,51533
1352563721,5804,272.8099975585937500,18.9442996978759770,36.6127014160156250,227.5538940429687500,138.8296051025390600,18.9446697235107420,31.4545192718505860,50,101,62,64,51,1713,2147495040,2147767414,2147574354,2147790208,2147299510,2147486272,2147716187,2148241947,1054,7,12,6446
1352563836,5800,261.3999938964844000,18.9852008819580080,36.5783996582031250,232.9727020263672000,137.6513061523437500,18.9806194305419920,31.1739292144775400,50,101,62,66,51,1714,2147493750,2147765558,2147582025,2147789504,2147311835,2147486144,2147719414,2148242916,1225,7,12,17844
1352563953,5800,250.0899963378906200,19.1396007537841800,36.5686988830566400,240.9550018310547000,132.4096984863281200,19.1406002044677730,30.7278099060058600,50,102,62,65,50,1714,2147496036,2147767579,2147593225,2147788297,2147309842,2147489234,2147729225,2148240978,1850,7,12,28959
1352564068,5805,239.2799987792968800,19.2511997222900400,36.5774993896484400,243.6466979980468800,128.9291992187500000,19.2468605041503900,30.5586795806884770,50,101,62,65,51,1714,2147496054,2147772489,2147610514,2147788708,2147309467,2147491236,2147743332,2148239753,1628,8,12,39134
1352564183,5801,228.3699951171875000,19.3078002929687500,36.5746002197265600,245.4028930664062500,126.7171020507812500,19.3144092559814450,30.4501094818115230,50,103,62,67,50,1715,2147496109,2147782646,2147631168,2147785746,2147310966,2147496594,2147747730,2148239158,3229,7,12,30917
1352564300,5804,217.7200012207031200,19.4186992645263670,36.5856018066406250,244.6260070800781200,123.5339965820312500,19.4116401672363280,30.4435997009277340,49,100,62,66,50,1716,2147499044,2147782857,2147638473,2147787099,2147310912,2147499830,2147751561,2148238034,436,7,13,26958
1352564427,5802,206.6699981689453000,19.5153007507324220,36.5932998657226560,244.7644958496093800,120.2143020629882800,19.5130691528320300,30.3942298889160160,49,101,63,66,50,1717,2147500690,2147803245,2147703341,2147786294,2147309568,2147512036,2147788754,2148239588,985,7,12,59634
1352564542,5804,197.1600036621093800,19.8096008300781250,36.6470985412597660,237.9226074218750000,110.3799972534179700,19.8137302398681640,30.5802402496337900,50,101,62,64,50,1717,2147498806,2147788873,2147640045,2147788443,2147306989,2147504393,2147756434,2148238354,1540,7,12,24527
1352564617,5802,191.3200073242187500,20.0475006103515620,36.6959991455078100,227.9651947021484400,103.1855010986328100,20.0338706970214840,30.9620094299316400,50,102,61,65,52,1718,2147501037,2147790098,2147639076,2147785033,2147314733,2147506130,2147749302,2148239085,1942,8,12,3767
1352564672,5803,187.5800018310547000,20.1175994873046880,36.6797981262207000,229.9340057373047000,100.6445999145507800,20.1116600036621100,30.8328800201416000,50,104,61,65,50,1716,2147503899,2147792420,2147652114,2147787675,2147315337,2147509677,2147756443,2148240018,1985,7,13,46184
1352564727,5800,183.9600067138672000,20.1884002685546880,36.6852989196777340,231.6188049316406200,98.3763809204101600,20.1811199188232420,30.7217502593994140,50,102,63,66,50,1717,2147511460,2147833481,2147792274,2147785435,2147321508,2147532891,2147836370,2148242514,2137,7,13,15188
1352564794,5804,179.5599975585937500,20.2896003723144530,36.6901016235351560,231.6385040283203000,95.1086807250976600,20.2812099456787100,30.6780891418457030,50,101,62,66,51,1717,2147514166,2147858642,2147872841,2147787547,2147321225,2147549933,2147878564,2148247652,2127,8,12,31295
1352564849,5801,175.9900054931640600,20.3598995208740230,36.6978988647460940,231.0346984863281200,92.5537033081054700,20.3595008850097660,30.6739807128906250,50,101,62,66,51,1717,2147521152,2147873645,2147907035,2147788077,2147318930,2147554825,2147895990,2148244836,2087,7,13,64108
1352564927,5804,171.3200073242187500,20.4691009521484380,36.7074012756347660,229.4163970947265600,89.2128372192382800,20.4619007110595700,30.7084007263183600,50,100,62,66,51,1717,2147523510,2147895597,2147970185,2147787044,2147324672,2147566573,2147933677,2148244964,2262,7,13,16379
1352565006,5804,167.5700073242187500,20.5109996795654300,36.7098999023437500,229.2823028564453000,87.6737899780273400,20.5090808868408200,30.6950092315673830,50,104,62,66,51,1718,2147513627,2147830336,2147748800,2147785417,2147326180,2147530761,2147808923,2148237659,2508,7,13,32427
1352565097,5802,163.6199951171875000,20.6805000305175780,36.7224998474121100,227.9196929931640600,82.5973815917968800,20.6647891998291000,30.6949901580810550,49,101,62,65,50,1720,2147516699,2147843876,2147774884,2147786806,2147324123,2147536969,2147816027,2148240758,2657,6,12,43980
1352565200,5805,160.0099945068359400,20.7668991088867200,36.7285003662109400,226.8251037597656200,79.5602111816406200,20.7579898834228500,30.7087192535400400,50,100,63,66,50,1720,2147536530,2147928658,2148042148,2147785380,2147333878,2147589321,2147970934,2148250898,1735,6,13,9586
1352565341,5802,156.1900024414062500,20.8990993499755860,36.7363014221191400,225.3569030761718800,75.2103881835937500,20.8915290832519530,30.7245407104492200,50,101,63,66,50,1722,2147518619,2147845284,2147761152,2147782902,2147325723,2147538806,2147817892,2148241042,1820,7,13,15965
1352565504,5799,152.3000030517578000,21.0100994110107420,36.7428016662597660,224.2411956787109400,72.0225524902343800,20.9894504547119140,30.7381305694580080,50,102,62,65,50,1720,2147529042,2147864292,2147801444,2147786624,2147327414,2147552246,2147834651,2148241133,1320,7,12,35044
1352565640,5805,147.6399993896484400,21.1597995758056640,36.7549018859863300,221.7765045166015600,66.8123931884765600,21.1495704650878900,30.7930793762207030,50,102,62,66,51,1720,2147542948,2147921773,2147951003,2147784356,2147336109,2147588937,2147919680,2148249252,924,7,12,65396
1352565731,5805,143.7299957275390600,21.1870002746582030,36.7490997314453100,221.7035064697265600,65.7614364624023400,21.1818809509277340,30.7831192016601560,50,102,63,66,50,1720,2147606765,2148157449,2148609782,2147787209,2147364114,2147724452,2148273289,2148268306,524,7,12,30498
1352565822,5804,140.0099945068359400,21.3405990600585940,36.7536010742187500,224.0713958740234400,60.9447708129882800,21.3300304412841800,30.6025009155273440,50,106,62,65,50,1718,2147627593,2148209499,2148716626,2147784219,2147372297,2147756205,2148329654,2148269686,392,7,12,26889
1352565925,5802,135.8300018310547000,21.5732994079589840,36.7510986328125000,227.0816040039062500,54.5478401184082000,21.5269393920898440,30.3721809387207030,50,104,62,66,50,1717,2147622573,2148171638,2148584402,2147786633,2147369728,2147728813,2148255360,2148266395,2808,8,12,1162
1352566004,5802,132.6199951171875000,21.8134002685546880,36.7743988037109400,227.1927947998047000,46.0978088378906250,21.7873191833496100,30.2579402923584000,51,103,62,67,50,1716,2147573924,2147948315,2147959744,2147785033,2147349293,2147598098,2147918674,2148244452,3195,7,13,26419
1352566107,5805,128.7299957275390600,21.9713001251220700,36.7849006652832000,226.3224029541015600,40.6116790771484400,21.9565505981445300,30.2297592163085940,51,103,62,67,50,1717,2147587565,2147972260,2147996416,2147786057,2147354176,2147613952,2147936182,2148244845,3284,7,13,10283
1352566208,5802,124.5599975585937500,22.1191997528076170,36.7799987792968750,226.3204956054687500,35.1204414367675800,22.1260795593261720,30.1593608856201170,52,105,63,65,50,1718,2147616484,2148028928,2148099739,2147789019,2147370166,2147652470,2147991707,2148249618,3014,7,12,42509
1352566287,5802,120.6299972534179700,22.4277000427246100,36.7941017150878900,225.2451019287109400,25.5638008117675780,22.4214801788330080,30.0892105102539060,51,107,63,65,50,1719,2147671350,2148149531,2148372891,2147786953,2147392640,2147729572,2148158628,2148257718,2865,7,12,56377
1352566378,5799,116.5999984741211000,22.4638004302978500,36.7846984863281250,225.2769927978515600,24.2752494812011720,22.4613494873046880,30.0713806152343750,52,108,63,66,50,1717,2147921234,2148766948,2149850587,2147802450,2147503369,2148079378,2148923355,2148305746,2355,7,12,13974
1352566469,5803,112.6699981689453100,22.6193008422851560,36.7882995605468750,229.1405029296875000,20.6337299346923830,22.5740509033203120,29.8389396667480470,53,109,62,67,50,1716,2148035410,2148957339,2150225728,2147808576,2147552612,2148190464,2149128484,2148323108,1975,8,12,47943
1352566574,5802,108.6900024414062500,22.7380008697509770,36.7829017639160160,222.6634979248047000,15.6486902236938480,22.7284603118896500,30.0890502929687500,53,109,62,67,50,1713,2148163949,2149151817,2150592676,2147819684,2147607506,2148298806,2149312585,2148339593,2551,7,12,64907
1352566701,5803,105.1299972534179700,22.8094005584716800,36.7701988220214840,226.8343963623047000,12.6958999633789060,22.8199806213378900,29.8482093811035160,53,107,62,66,50,1712,2148277348,2149304384,2150870308,2147829229,2147657664,2148382619,2149460955,2148349833,1727,7,12,62438
1352566900,5806,100.9899978637695300,23.0060005187988280,36.7351989746093750,236.6271972656250000,5.5452351570129395,23.0418090820312500,29.2992992401123050,53,108,62,66,50,1710,2148507766,2149607881,2151437257,2147849773,2147768466,2148571529,2149756434,2148372754,540,7,13,15909
1352566955,5803,98.8399963378906200,23.2243003845214840,36.7321014404296900,236.4738006591797000,0.1283437013626099,23.2100505828857420,29.2380790710449220,54,111,62,67,51,1708,2148671817,2149842706,2151892470,2147866331,2147844781,2148706752,2149989302,2148394614,483,8,12,24577
1352567010,5805,97.0899963378906200,23.6177005767822270,36.7097015380859400,231.5370941162109400,-9.3316192626953120,23.5042591094970700,29.3471698760986330,55,118,64,66,50,1709,2148851977,2150097517,2152369636,2147884452,2147919945,2148843565,2150235785,2148412534,339,8,13,31221
1352567089,5802,95.6800003051757800,23.7299995422363280,36.6861000061035160,227.5453948974609400,-14.7948303222656250,23.6744194030761720,29.4664802551269530,54,112,64,66,50,1710,2148977654,2150296950,2152793691,2147898331,2147976466,2148962368,2150465097,2148431606,1092,7,12,31388
1352567216,5803,93.0699996948242200,23.7357997894287100,36.5031013488769500,226.3782043457031200,-16.0079498291015620,23.7122306823730470,29.5069007873535160,56,116,63,66,50,1708,2149253522,2150710482,2153586166,2147931300,2148109586,2149192457,2150875949,2148468032,904,6,12,24513
1352567498,5806,91.3000030517578100,23.5408000946044920,36.3227996826171900,238.5310974121093800,-10.8900403976440430,23.5527801513671880,29.0071201324462900,64,141,64,69,50,1702,2148579300,2149460269,2150849554,2147867904,2147812809,2148482139,2149433801,2148360612,334,8,12,34825
1352567601,5804,89.6600036621093800,23.5310993194580080,36.3125000000000000,242.9205017089843800,-10.2414302825927730,23.5325908660888670,28.8197498321533200,69,142,66,71,50,1696,2148552612,2149401673,2150692196,2147866212,2147817563,2148442660,2149359104,2148358930,2796,8,12,40996
1352567774,5803,87.1399993896484400,23.5312995910644530,36.3105010986328100,245.0774993896484400,-10.1104297637939450,23.5285091400146500,28.7268390655517580,68,152,68,73,49,1694,2148571849,2149366409,2150495497,2147875437,2147852864,2148418889,2149271442,2148354130,2735,7,12,8890
1352567841,5804,84.5400009155273400,23.5300998687744140,36.3098983764648440,245.5270996093750000,-10.0933198928833000,23.5279808044433600,28.7074108123779300,71,146,66,73,50,1693,2148750848,2149590793,2150849874,2147892800,2147966189,2148552073,2149477888,2148375049,2962,8,12,1198
1352567896,5802,82.2300033569336000,23.5268993377685550,36.3081016540527340,245.7792968750000000,-10.0491600036621100,23.5265998840332030,28.6970500946044920,70,149,65,72,49,1693,2148948918,2149857408,2151254957,2147923648,2148083501,2148701942,2149711616,2148402605,2863,8,12,16548
1352567951,5805,79.9400024414062500,23.5244007110595700,36.3068008422851560,245.9425964355468800,-9.9167881011962890,23.5224800109863280,28.6916904449462900,69,149,66,73,50,1695,2149148736,2150110921,2151626020,2147950016,2148204681,2148846025,2149926509,2148427940,3318,8,12,64522
1352568006,5803,77.7699966430664000,23.5261993408203120,36.3059005737304700,245.9535980224609400,-9.9865169525146480,23.5246505737304700,28.6903305053710940,70,151,66,73,50,1694,2149370102,2150393097,2152043885,2147981421,2148345883,2149017508,2150168000,2148453476,3589,8,12,35484
1352568085,5806,73.9400024414062500,23.5254001617431640,36.3046989440918000,246.2776947021484400,-9.9546518325805660,23.5236606597900400,28.6765804290771500,71,152,66,72,50,1691,2149761316,2150863396,2152665152,2148044178,2148589120,2149291099,2150532480,2148505664,278,8,12,34427
1352568140,5806,70.4700012207031200,23.5258007049560550,36.3041992187500000,246.3226013183593800,-9.9589796066284180,23.5237903594970700,28.6746006011962900,71,153,67,72,50,1692,2150309476,2151556845,2153709814,2148124534,2148916800,2149690934,2151130294,2148571072,204,8,12,35309
1352568195,5803,66.8399963378906200,23.5256996154785160,36.3036994934082000,246.4956970214843800,-9.9772720336914060,23.5243606567382800,28.6668891906738280,71,148,66,72,50,1690,2151873334,2153745874,2157336374,2148397028,2149826313,2150955958,2153189449,2148804745,147,7,12,49322
1352568250,5802,63.0800018310546900,23.5275993347167970,36.3018989562988300,246.5397033691406200,-10.0099201202392580,23.5253791809082030,28.6645603179931640,71,151,66,72,49,1691,2151361910,2152687981,2154981906,2148289499,2149545261,2150357083,2151901714,2148694326,3492,7,12,33888
1352568305,5804,59.3600006103515600,23.5333995819091800,36.3008003234863300,246.7610931396484400,-10.2303199768066400,23.5322399139404300,28.6523399353027340,71,150,67,71,49,1691,2152102363,2153467456,2155819693,2148419282,2149980854,2150794368,2152379958,2148773961,3234,8,12,20661
1352568360,5803,55.6899986267089840,23.5382003784179700,36.2994995117187500,246.6560974121093800,-10.3564996719360350,23.5361690521240230,28.6551704406738280,71,147,67,71,50,1690,2153145554,2154624173,2157229787,2148612187,2150609709,2151481536,2153209161,2148907163,3235,8,12,6849
1352568521,5805,48.0800018310546900,23.5590991973876950,36.2958984375000000,246.9667053222656200,-11.0582103729248050,23.5580196380615230,28.6331195831298830,70,148,65,72,49,1688,2159144109,2161852480,2167120265,2150184466,2154138843,2155650048,2158814573,2149854738,3225,7,12,53980
1352568555,5803,46.4700012207031250,23.5648002624511720,36.2943000793457000,246.9197998046875000,-11.2194995880126950,23.5630397796630860,28.6332607269287100,71,153,68,70,50,1687,2163703195,2167892114,2176317714,2151510454,2157030656,2159471341,2164614921,2150744941,3171,8,12,29575
1352568600,5804,44.2700004577636700,23.5685997009277340,36.2935981750488300,247.0341033935547000,-11.4164896011352540,23.5691795349121100,28.6257705688476560,72,149,65,73,50,1687,2174686582,2182945782,2199825042,2155508434,2163251428,2167809782,2177512365,2152979456,3079,8,12,64659
1352568633,5804,42.6699981689453100,23.5729007720947270,36.2933006286621100,247.0189056396484400,-11.5536899566650390,23.5734500885009770,28.6248493194580080,71,151,67,73,49,1685,2179719881,2189388672,2209387264,2157522422,2165972800,2171213065,2182254866,2153964589,3018,8,12,28525
1352568678,5802,40.5900001525878900,23.5764007568359380,36.2927017211914060,247.1186981201172000,-11.6952104568481450,23.5778598785400400,28.6187000274658200,71,147,66,72,51,1685,2183498505,2193610752,2214756864,2159221568,2168343314,2174056274,2186066962,2154877641,2713,8,12,28058
1352568726,5807,38.2000007629394500,23.5804996490478500,36.2924003601074200,247.0646972656250000,-11.8291597366333000,23.5820293426513670,28.6194000244140620,70,150,66,72,49,1686,2172219702,2177212708,2187353810,2155017481,2162057316,2164799040,2170642331,2152399149,2564,7,12,31326
1352568759,5802,36.5699996948242200,23.5809001922607420,36.2925987243652340,247.1566925048828000,-11.8326997756958000,23.5821399688720700,28.6154403686523440,70,149,65,71,50,1684,2179152173,2185619072,2199098962,2157949787,2165693494,2169037878,2176252315,2153698651,2542,8,12,62195
1352568804,5805,34.3499984741210940,23.5827999114990230,36.2919006347656250,247.1954956054687500,-11.9213104248046880,23.5848999023437500,28.6124897003173830,70,151,65,71,50,1684,2193155602,2203654336,2225578797,2164559332,2174692242,2180864502,2193884845,2157240356,2520,8,12,13785
1352568837,5805,32.7599983215332000,23.5841999053955080,36.2921981811523440,247.3556060791015600,-11.9839601516723630,23.5868492126464840,28.6049308776855470,72,152,65,71,50,1471,2206854345,2221113042,2251004790,2171579364,2182715163,2190652608,2207113408,2160894774,2491,6,11,33362
1352568882,5802,30.5799999237060550,23.5884990692138670,36.2914009094238300,247.2837982177734400,-12.0629301071167000,23.5893096923828120,28.6069393157959000,67,147,65,73,49,1682,2186037074,2192367067,2205814034,2162150162,2171943350,2175945234,2184550464,2156086912,2478,8,12,21329
1352568927,5802,28.4500007629394530,23.5879993438720700,36.2916984558105500,247.4653015136718800,-12.0644102096557620,23.5893592834472660,28.5991401672363280,68,150,66,72,50,1681,2185645851,2191029915,2202657280,2162548214,2170825508,2173727433,2180260315,2155732041,2511,8,12,39488
1352568972,5804,26.3400001525878900,23.5881996154785160,36.2916984558105500,247.4091033935547000,-12.0698204040527340,23.5895309448242200,28.6014995574951170,67,150,68,72,50,1679,2189728237,2195114569,2207026688,2165140096,2173514852,2176360054,2182985435,2156838528,2491,8,12,49178
